{"data":{"norad_id":64555,"intl_designator":"2025-135AD","name":"CONNECTA IOT-10","alt_names":[],"object_type":"PAYLOAD","status":"ACTIVE","operator":null,"country":"TURK","launch_date":"2025-06-23","launch_site_code":"AFWTR","launch_vehicle":null,"mission":null,"orbit_class":"UNKNOWN","rcs_meters":null,"size_class":null,"mass_kg":null,"dimensions":null,"purposes":[],"wikipedia_slug":null,"has_3d_model":false,"image_url":null,"decayed_at":null,"tle_current":{"epoch":"2026-05-25T01:23:00.030336Z","epoch_age_seconds":66202,"freshness":"FRESH","line1":"1 64555U 25135AD  26145.05763924  .00002881  00000+0  13600-3 0  9996","line2":"2 64555  97.4657 260.3119 0002251  77.0998 283.0488 15.20243724 51343","mean_motion":15.20243724,"eccentricity":0.0002251,"inclination_deg":97.4657,"raan_deg":260.3119,"arg_perigee_deg":77.0998,"mean_anomaly_deg":283.0488,"bstar":0.000136,"rev_number":5134,"period_min":94.721653986581,"perigee_km":503.55542126524,"apogee_km":506.65425674116,"semimajor_km":6883.2418390032,"source":"CELESTRAK","updated_at":"2026-05-25T13:38:04.615434Z"}}}